<?xml version="1.0"?>
<gpx xmlns="http://www.topografix.com/GPX/1/1" xmlns:xsi="http://www.w3.org/2001/XMLSchema-instance" version="1.1" creator="GPX RubyGem 1.0.0 -- http://dougfales.github.io/gpx/" xsi:schemaLocation="http://www.topografix.com/GPX/1/1 http://www.topografix.com/GPX/1/1/gpx.xsd">
  <metadata>
    <name/>
    <time>2026-05-07T21:26:09+00:00</time>
    <bound minlat="90.0" minlon="180.0" maxlat="-90.0" maxlon="-180.0"/>
  </metadata>
  <trk>
    <name/>
    <trkseg>
      <trkpt lat="42.880651" lon="-0.402707">
        <time>1970-01-01T00:00:00+00:00</time>
        <ele>1250.0</ele>
      </trkpt>
      <trkpt lat="42.880548" lon="-0.40288">
        <time>1970-01-01T00:00:00+00:00</time>
        <ele>1253.0</ele>
      </trkpt>
      <trkpt lat="42.880588" lon="-0.403189">
        <time>1970-01-01T00:00:00+00:00</time>
        <ele>1264.0</ele>
      </trkpt>
      <trkpt lat="42.880922" lon="-0.402841">
        <time>1970-01-01T00:00:00+00:00</time>
        <ele>1262.0</ele>
      </trkpt>
      <trkpt lat="42.881347" lon="-0.402858">
        <time>1970-01-01T00:00:00+00:00</time>
        <ele>1283.0</ele>
      </trkpt>
      <trkpt lat="42.880708" lon="-0.40422">
        <time>1970-01-01T00:00:00+00:00</time>
        <ele>1305.0</ele>
      </trkpt>
      <trkpt lat="42.880449" lon="-0.404575">
        <time>1970-01-01T00:00:00+00:00</time>
        <ele>1312.0</ele>
      </trkpt>
      <trkpt lat="42.880139" lon="-0.405351">
        <time>1970-01-01T00:00:00+00:00</time>
        <ele>1341.0</ele>
      </trkpt>
      <trkpt lat="42.879999" lon="-0.406261">
        <time>1970-01-01T00:00:00+00:00</time>
        <ele>1384.0</ele>
      </trkpt>
      <trkpt lat="42.880018" lon="-0.40647">
        <time>1970-01-01T00:00:00+00:00</time>
        <ele>1395.0</ele>
      </trkpt>
      <trkpt lat="42.881224" lon="-0.406202">
        <time>1970-01-01T00:00:00+00:00</time>
        <ele>1434.0</ele>
      </trkpt>
      <trkpt lat="42.881292" lon="-0.406342">
        <time>1970-01-01T00:00:00+00:00</time>
        <ele>1444.0</ele>
      </trkpt>
      <trkpt lat="42.879854" lon="-0.408444">
        <time>1970-01-01T00:00:00+00:00</time>
        <ele>1479.0</ele>
      </trkpt>
      <trkpt lat="42.879735" lon="-0.408684">
        <time>1970-01-01T00:00:00+00:00</time>
        <ele>1487.0</ele>
      </trkpt>
      <trkpt lat="42.879033" lon="-0.409627">
        <time>1970-01-01T00:00:00+00:00</time>
        <ele>1511.0</ele>
      </trkpt>
      <trkpt lat="42.878181" lon="-0.410451">
        <time>1970-01-01T00:00:00+00:00</time>
        <ele>1528.0</ele>
      </trkpt>
      <trkpt lat="42.87799" lon="-0.410492">
        <time>1970-01-01T00:00:00+00:00</time>
        <ele>1525.0</ele>
      </trkpt>
      <trkpt lat="42.877794" lon="-0.41063">
        <time>1970-01-01T00:00:00+00:00</time>
        <ele>1528.0</ele>
      </trkpt>
      <trkpt lat="42.877926" lon="-0.410814">
        <time>1970-01-01T00:00:00+00:00</time>
        <ele>1540.0</ele>
      </trkpt>
      <trkpt lat="42.877812" lon="-0.410988">
        <time>1970-01-01T00:00:00+00:00</time>
        <ele>1546.0</ele>
      </trkpt>
      <trkpt lat="42.877939" lon="-0.411121">
        <time>1970-01-01T00:00:00+00:00</time>
        <ele>1556.0</ele>
      </trkpt>
      <trkpt lat="42.877828" lon="-0.411316">
        <time>1970-01-01T00:00:00+00:00</time>
        <ele>1564.0</ele>
      </trkpt>
      <trkpt lat="42.877866" lon="-0.411477">
        <time>1970-01-01T00:00:00+00:00</time>
        <ele>1575.0</ele>
      </trkpt>
      <trkpt lat="42.877145" lon="-0.411964">
        <time>1970-01-01T00:00:00+00:00</time>
        <ele>1589.0</ele>
      </trkpt>
      <trkpt lat="42.876492" lon="-0.412401">
        <time>1970-01-01T00:00:00+00:00</time>
        <ele>1607.0</ele>
      </trkpt>
      <trkpt lat="42.876184" lon="-0.412856">
        <time>1970-01-01T00:00:00+00:00</time>
        <ele>1622.0</ele>
      </trkpt>
      <trkpt lat="42.87601" lon="-0.412963">
        <time>1970-01-01T00:00:00+00:00</time>
        <ele>1621.0</ele>
      </trkpt>
      <trkpt lat="42.875785" lon="-0.413198">
        <time>1970-01-01T00:00:00+00:00</time>
        <ele>1621.0</ele>
      </trkpt>
      <trkpt lat="42.87546" lon="-0.413703">
        <time>1970-01-01T00:00:00+00:00</time>
        <ele>1632.0</ele>
      </trkpt>
      <trkpt lat="42.875222" lon="-0.413812">
        <time>1970-01-01T00:00:00+00:00</time>
        <ele>1638.0</ele>
      </trkpt>
      <trkpt lat="42.875083" lon="-0.413694">
        <time>1970-01-01T00:00:00+00:00</time>
        <ele>1641.0</ele>
      </trkpt>
      <trkpt lat="42.874958" lon="-0.41345">
        <time>1970-01-01T00:00:00+00:00</time>
        <ele>1644.0</ele>
      </trkpt>
      <trkpt lat="42.874733" lon="-0.413243">
        <time>1970-01-01T00:00:00+00:00</time>
        <ele>1657.0</ele>
      </trkpt>
      <trkpt lat="42.874627" lon="-0.41299">
        <time>1970-01-01T00:00:00+00:00</time>
        <ele>1659.0</ele>
      </trkpt>
      <trkpt lat="42.874527" lon="-0.412611">
        <time>1970-01-01T00:00:00+00:00</time>
        <ele>1658.0</ele>
      </trkpt>
      <trkpt lat="42.874375" lon="-0.412367">
        <time>1970-01-01T00:00:00+00:00</time>
        <ele>1660.0</ele>
      </trkpt>
      <trkpt lat="42.874243" lon="-0.412286">
        <time>1970-01-01T00:00:00+00:00</time>
        <ele>1665.0</ele>
      </trkpt>
      <trkpt lat="42.87415" lon="-0.412286">
        <time>1970-01-01T00:00:00+00:00</time>
        <ele>1669.0</ele>
      </trkpt>
      <trkpt lat="42.87419" lon="-0.412963">
        <time>1970-01-01T00:00:00+00:00</time>
        <ele>1686.0</ele>
      </trkpt>
      <trkpt lat="42.874164" lon="-0.413107">
        <time>1970-01-01T00:00:00+00:00</time>
        <ele>1690.0</ele>
      </trkpt>
      <trkpt lat="42.874025" lon="-0.41299">
        <time>1970-01-01T00:00:00+00:00</time>
        <ele>1695.0</ele>
      </trkpt>
      <trkpt lat="42.873939" lon="-0.413071">
        <time>1970-01-01T00:00:00+00:00</time>
        <ele>1702.0</ele>
      </trkpt>
      <trkpt lat="42.873846" lon="-0.412909">
        <time>1970-01-01T00:00:00+00:00</time>
        <ele>1704.0</ele>
      </trkpt>
      <trkpt lat="42.873737" lon="-0.412927">
        <time>1970-01-01T00:00:00+00:00</time>
        <ele>1710.0</ele>
      </trkpt>
      <trkpt lat="42.873748" lon="-0.413131">
        <time>1970-01-01T00:00:00+00:00</time>
        <ele>1714.0</ele>
      </trkpt>
      <trkpt lat="42.87368" lon="-0.413221">
        <time>1970-01-01T00:00:00+00:00</time>
        <ele>1720.0</ele>
      </trkpt>
      <trkpt lat="42.873379" lon="-0.412863">
        <time>1970-01-01T00:00:00+00:00</time>
        <ele>1724.0</ele>
      </trkpt>
      <trkpt lat="42.872884" lon="-0.412525">
        <time>1970-01-01T00:00:00+00:00</time>
        <ele>1737.0</ele>
      </trkpt>
      <trkpt lat="42.872726" lon="-0.412386">
        <time>1970-01-01T00:00:00+00:00</time>
        <ele>1737.0</ele>
      </trkpt>
      <trkpt lat="42.872663" lon="-0.412284">
        <time>1970-01-01T00:00:00+00:00</time>
        <ele>1736.0</ele>
      </trkpt>
      <trkpt lat="42.872538" lon="-0.412171">
        <time>1970-01-01T00:00:00+00:00</time>
        <ele>1736.0</ele>
      </trkpt>
      <trkpt lat="42.872223" lon="-0.411992">
        <time>1970-01-01T00:00:00+00:00</time>
        <ele>1739.0</ele>
      </trkpt>
      <trkpt lat="42.872128" lon="-0.412014">
        <time>1970-01-01T00:00:00+00:00</time>
        <ele>1744.0</ele>
      </trkpt>
      <trkpt lat="42.871963" lon="-0.411917">
        <time>1970-01-01T00:00:00+00:00</time>
        <ele>1749.0</ele>
      </trkpt>
      <trkpt lat="42.871963" lon="-0.41211">
        <time>1970-01-01T00:00:00+00:00</time>
        <ele>1755.0</ele>
      </trkpt>
      <trkpt lat="42.871829" lon="-0.412067">
        <time>1970-01-01T00:00:00+00:00</time>
        <ele>1758.0</ele>
      </trkpt>
      <trkpt lat="42.871515" lon="-0.412025">
        <time>1970-01-01T00:00:00+00:00</time>
        <ele>1765.0</ele>
      </trkpt>
      <trkpt lat="42.871185" lon="-0.411864">
        <time>1970-01-01T00:00:00+00:00</time>
        <ele>1776.0</ele>
      </trkpt>
      <trkpt lat="42.871303" lon="-0.41211">
        <time>1970-01-01T00:00:00+00:00</time>
        <ele>1776.0</ele>
      </trkpt>
      <trkpt lat="42.871122" lon="-0.412025">
        <time>1970-01-01T00:00:00+00:00</time>
        <ele>1781.0</ele>
      </trkpt>
      <trkpt lat="42.870862" lon="-0.411724">
        <time>1970-01-01T00:00:00+00:00</time>
        <ele>1782.0</ele>
      </trkpt>
      <trkpt lat="42.870674" lon="-0.411971">
        <time>1970-01-01T00:00:00+00:00</time>
        <ele>1792.0</ele>
      </trkpt>
      <trkpt lat="42.870422" lon="-0.412175">
        <time>1970-01-01T00:00:00+00:00</time>
        <ele>1798.0</ele>
      </trkpt>
      <trkpt lat="42.870367" lon="-0.412239">
        <time>1970-01-01T00:00:00+00:00</time>
        <ele>1799.0</ele>
      </trkpt>
      <trkpt lat="42.870257" lon="-0.412518">
        <time>1970-01-01T00:00:00+00:00</time>
        <ele>1800.0</ele>
      </trkpt>
      <trkpt lat="42.870147" lon="-0.412722">
        <time>1970-01-01T00:00:00+00:00</time>
        <ele>1803.0</ele>
      </trkpt>
      <trkpt lat="42.870092" lon="-0.412915">
        <time>1970-01-01T00:00:00+00:00</time>
        <ele>1805.0</ele>
      </trkpt>
      <trkpt lat="42.869982" lon="-0.412926">
        <time>1970-01-01T00:00:00+00:00</time>
        <ele>1805.0</ele>
      </trkpt>
      <trkpt lat="42.869975" lon="-0.412881">
        <time>1970-01-01T00:00:00+00:00</time>
        <ele>1805.0</ele>
      </trkpt>
      <trkpt lat="42.869831" lon="-0.412735">
        <time>1970-01-01T00:00:00+00:00</time>
        <ele>1807.0</ele>
      </trkpt>
      <trkpt lat="42.869754" lon="-0.4128">
        <time>1970-01-01T00:00:00+00:00</time>
        <ele>1809.0</ele>
      </trkpt>
      <trkpt lat="42.869769" lon="-0.412664">
        <time>1970-01-01T00:00:00+00:00</time>
        <ele>1810.0</ele>
      </trkpt>
      <trkpt lat="42.869683" lon="-0.412592">
        <time>1970-01-01T00:00:00+00:00</time>
        <ele>1813.0</ele>
      </trkpt>
      <trkpt lat="42.869608" lon="-0.412408">
        <time>1970-01-01T00:00:00+00:00</time>
        <ele>1814.0</ele>
      </trkpt>
      <trkpt lat="42.869482" lon="-0.412253">
        <time>1970-01-01T00:00:00+00:00</time>
        <ele>1815.0</ele>
      </trkpt>
      <trkpt lat="42.869038" lon="-0.41211">
        <time>1970-01-01T00:00:00+00:00</time>
        <ele>1835.0</ele>
      </trkpt>
      <trkpt lat="42.868866" lon="-0.411993">
        <time>1970-01-01T00:00:00+00:00</time>
        <ele>1843.0</ele>
      </trkpt>
      <trkpt lat="42.868632" lon="-0.411797">
        <time>1970-01-01T00:00:00+00:00</time>
        <ele>1853.0</ele>
      </trkpt>
      <trkpt lat="42.868432" lon="-0.41155">
        <time>1970-01-01T00:00:00+00:00</time>
        <ele>1863.0</ele>
      </trkpt>
      <trkpt lat="42.868165" lon="-0.411387">
        <time>1970-01-01T00:00:00+00:00</time>
        <ele>1879.0</ele>
      </trkpt>
      <trkpt lat="42.867874" lon="-0.411283">
        <time>1970-01-01T00:00:00+00:00</time>
        <ele>1894.0</ele>
      </trkpt>
      <trkpt lat="42.867573" lon="-0.411048">
        <time>1970-01-01T00:00:00+00:00</time>
        <ele>1906.0</ele>
      </trkpt>
      <trkpt lat="42.867253" lon="-0.410996">
        <time>1970-01-01T00:00:00+00:00</time>
        <ele>1917.0</ele>
      </trkpt>
      <trkpt lat="42.866666" lon="-0.411035">
        <time>1970-01-01T00:00:00+00:00</time>
        <ele>1924.0</ele>
      </trkpt>
      <trkpt lat="42.866575" lon="-0.41097">
        <time>1970-01-01T00:00:00+00:00</time>
        <ele>1924.0</ele>
      </trkpt>
      <trkpt lat="42.866394" lon="-0.410794">
        <time>1970-01-01T00:00:00+00:00</time>
        <ele>1925.0</ele>
      </trkpt>
      <trkpt lat="42.866227" lon="-0.410762">
        <time>1970-01-01T00:00:00+00:00</time>
        <ele>1924.0</ele>
      </trkpt>
      <trkpt lat="42.866021" lon="-0.410657">
        <time>1970-01-01T00:00:00+00:00</time>
        <ele>1925.0</ele>
      </trkpt>
      <trkpt lat="42.865558" lon="-0.410071">
        <time>1970-01-01T00:00:00+00:00</time>
        <ele>1948.0</ele>
      </trkpt>
      <trkpt lat="42.865415" lon="-0.409752">
        <time>1970-01-01T00:00:00+00:00</time>
        <ele>1950.0</ele>
      </trkpt>
      <trkpt lat="42.865234" lon="-0.409661">
        <time>1970-01-01T00:00:00+00:00</time>
        <ele>1953.0</ele>
      </trkpt>
      <trkpt lat="42.864976" lon="-0.409648">
        <time>1970-01-01T00:00:00+00:00</time>
        <ele>1961.0</ele>
      </trkpt>
      <trkpt lat="42.864685" lon="-0.409589">
        <time>1970-01-01T00:00:00+00:00</time>
        <ele>1970.0</ele>
      </trkpt>
      <trkpt lat="42.864435" lon="-0.409647">
        <time>1970-01-01T00:00:00+00:00</time>
        <ele>1977.0</ele>
      </trkpt>
      <trkpt lat="42.864474" lon="-0.409918">
        <time>1970-01-01T00:00:00+00:00</time>
        <ele>1979.0</ele>
      </trkpt>
      <trkpt lat="42.864545" lon="-0.410144">
        <time>1970-01-01T00:00:00+00:00</time>
        <ele>1982.0</ele>
      </trkpt>
      <trkpt lat="42.864748" lon="-0.410553">
        <time>1970-01-01T00:00:00+00:00</time>
        <ele>1982.0</ele>
      </trkpt>
      <trkpt lat="42.864748" lon="-0.410553">
        <time>1970-01-01T00:00:00+00:00</time>
        <ele>1982.0</ele>
      </trkpt>
      <trkpt lat="42.864545" lon="-0.410144">
        <time>1970-01-01T00:00:00+00:00</time>
        <ele>1982.0</ele>
      </trkpt>
      <trkpt lat="42.864474" lon="-0.409918">
        <time>1970-01-01T00:00:00+00:00</time>
        <ele>1979.0</ele>
      </trkpt>
      <trkpt lat="42.864435" lon="-0.409647">
        <time>1970-01-01T00:00:00+00:00</time>
        <ele>1977.0</ele>
      </trkpt>
      <trkpt lat="42.864685" lon="-0.409589">
        <time>1970-01-01T00:00:00+00:00</time>
        <ele>1970.0</ele>
      </trkpt>
      <trkpt lat="42.864976" lon="-0.409648">
        <time>1970-01-01T00:00:00+00:00</time>
        <ele>1961.0</ele>
      </trkpt>
      <trkpt lat="42.865234" lon="-0.409661">
        <time>1970-01-01T00:00:00+00:00</time>
        <ele>1953.0</ele>
      </trkpt>
      <trkpt lat="42.865415" lon="-0.409752">
        <time>1970-01-01T00:00:00+00:00</time>
        <ele>1950.0</ele>
      </trkpt>
      <trkpt lat="42.865558" lon="-0.410071">
        <time>1970-01-01T00:00:00+00:00</time>
        <ele>1948.0</ele>
      </trkpt>
      <trkpt lat="42.866021" lon="-0.410657">
        <time>1970-01-01T00:00:00+00:00</time>
        <ele>1925.0</ele>
      </trkpt>
      <trkpt lat="42.866227" lon="-0.410762">
        <time>1970-01-01T00:00:00+00:00</time>
        <ele>1924.0</ele>
      </trkpt>
      <trkpt lat="42.866394" lon="-0.410794">
        <time>1970-01-01T00:00:00+00:00</time>
        <ele>1925.0</ele>
      </trkpt>
      <trkpt lat="42.866575" lon="-0.41097">
        <time>1970-01-01T00:00:00+00:00</time>
        <ele>1924.0</ele>
      </trkpt>
      <trkpt lat="42.866666" lon="-0.411035">
        <time>1970-01-01T00:00:00+00:00</time>
        <ele>1924.0</ele>
      </trkpt>
      <trkpt lat="42.867253" lon="-0.410996">
        <time>1970-01-01T00:00:00+00:00</time>
        <ele>1917.0</ele>
      </trkpt>
      <trkpt lat="42.867573" lon="-0.411048">
        <time>1970-01-01T00:00:00+00:00</time>
        <ele>1906.0</ele>
      </trkpt>
      <trkpt lat="42.867874" lon="-0.411283">
        <time>1970-01-01T00:00:00+00:00</time>
        <ele>1894.0</ele>
      </trkpt>
      <trkpt lat="42.868165" lon="-0.411387">
        <time>1970-01-01T00:00:00+00:00</time>
        <ele>1879.0</ele>
      </trkpt>
      <trkpt lat="42.868432" lon="-0.41155">
        <time>1970-01-01T00:00:00+00:00</time>
        <ele>1863.0</ele>
      </trkpt>
      <trkpt lat="42.868632" lon="-0.411797">
        <time>1970-01-01T00:00:00+00:00</time>
        <ele>1853.0</ele>
      </trkpt>
      <trkpt lat="42.868866" lon="-0.411993">
        <time>1970-01-01T00:00:00+00:00</time>
        <ele>1843.0</ele>
      </trkpt>
      <trkpt lat="42.869038" lon="-0.41211">
        <time>1970-01-01T00:00:00+00:00</time>
        <ele>1835.0</ele>
      </trkpt>
      <trkpt lat="42.869482" lon="-0.412253">
        <time>1970-01-01T00:00:00+00:00</time>
        <ele>1815.0</ele>
      </trkpt>
      <trkpt lat="42.869608" lon="-0.412408">
        <time>1970-01-01T00:00:00+00:00</time>
        <ele>1814.0</ele>
      </trkpt>
      <trkpt lat="42.869683" lon="-0.412592">
        <time>1970-01-01T00:00:00+00:00</time>
        <ele>1813.0</ele>
      </trkpt>
      <trkpt lat="42.869769" lon="-0.412664">
        <time>1970-01-01T00:00:00+00:00</time>
        <ele>1810.0</ele>
      </trkpt>
      <trkpt lat="42.869754" lon="-0.4128">
        <time>1970-01-01T00:00:00+00:00</time>
        <ele>1809.0</ele>
      </trkpt>
      <trkpt lat="42.869831" lon="-0.412735">
        <time>1970-01-01T00:00:00+00:00</time>
        <ele>1807.0</ele>
      </trkpt>
      <trkpt lat="42.869975" lon="-0.412881">
        <time>1970-01-01T00:00:00+00:00</time>
        <ele>1805.0</ele>
      </trkpt>
      <trkpt lat="42.869982" lon="-0.412926">
        <time>1970-01-01T00:00:00+00:00</time>
        <ele>1805.0</ele>
      </trkpt>
      <trkpt lat="42.870092" lon="-0.412915">
        <time>1970-01-01T00:00:00+00:00</time>
        <ele>1805.0</ele>
      </trkpt>
      <trkpt lat="42.870147" lon="-0.412722">
        <time>1970-01-01T00:00:00+00:00</time>
        <ele>1803.0</ele>
      </trkpt>
      <trkpt lat="42.870257" lon="-0.412518">
        <time>1970-01-01T00:00:00+00:00</time>
        <ele>1800.0</ele>
      </trkpt>
      <trkpt lat="42.870367" lon="-0.412239">
        <time>1970-01-01T00:00:00+00:00</time>
        <ele>1799.0</ele>
      </trkpt>
      <trkpt lat="42.870422" lon="-0.412175">
        <time>1970-01-01T00:00:00+00:00</time>
        <ele>1798.0</ele>
      </trkpt>
      <trkpt lat="42.870674" lon="-0.411971">
        <time>1970-01-01T00:00:00+00:00</time>
        <ele>1792.0</ele>
      </trkpt>
      <trkpt lat="42.870862" lon="-0.411724">
        <time>1970-01-01T00:00:00+00:00</time>
        <ele>1782.0</ele>
      </trkpt>
      <trkpt lat="42.871122" lon="-0.412025">
        <time>1970-01-01T00:00:00+00:00</time>
        <ele>1781.0</ele>
      </trkpt>
      <trkpt lat="42.871303" lon="-0.41211">
        <time>1970-01-01T00:00:00+00:00</time>
        <ele>1776.0</ele>
      </trkpt>
      <trkpt lat="42.871185" lon="-0.411864">
        <time>1970-01-01T00:00:00+00:00</time>
        <ele>1776.0</ele>
      </trkpt>
      <trkpt lat="42.871515" lon="-0.412025">
        <time>1970-01-01T00:00:00+00:00</time>
        <ele>1765.0</ele>
      </trkpt>
      <trkpt lat="42.871829" lon="-0.412067">
        <time>1970-01-01T00:00:00+00:00</time>
        <ele>1758.0</ele>
      </trkpt>
      <trkpt lat="42.871963" lon="-0.41211">
        <time>1970-01-01T00:00:00+00:00</time>
        <ele>1755.0</ele>
      </trkpt>
      <trkpt lat="42.871963" lon="-0.411917">
        <time>1970-01-01T00:00:00+00:00</time>
        <ele>1749.0</ele>
      </trkpt>
      <trkpt lat="42.872128" lon="-0.412014">
        <time>1970-01-01T00:00:00+00:00</time>
        <ele>1744.0</ele>
      </trkpt>
      <trkpt lat="42.872223" lon="-0.411992">
        <time>1970-01-01T00:00:00+00:00</time>
        <ele>1739.0</ele>
      </trkpt>
      <trkpt lat="42.872538" lon="-0.412171">
        <time>1970-01-01T00:00:00+00:00</time>
        <ele>1736.0</ele>
      </trkpt>
      <trkpt lat="42.872663" lon="-0.412284">
        <time>1970-01-01T00:00:00+00:00</time>
        <ele>1736.0</ele>
      </trkpt>
      <trkpt lat="42.872726" lon="-0.412386">
        <time>1970-01-01T00:00:00+00:00</time>
        <ele>1737.0</ele>
      </trkpt>
      <trkpt lat="42.872884" lon="-0.412525">
        <time>1970-01-01T00:00:00+00:00</time>
        <ele>1737.0</ele>
      </trkpt>
      <trkpt lat="42.873379" lon="-0.412863">
        <time>1970-01-01T00:00:00+00:00</time>
        <ele>1724.0</ele>
      </trkpt>
      <trkpt lat="42.87368" lon="-0.413221">
        <time>1970-01-01T00:00:00+00:00</time>
        <ele>1720.0</ele>
      </trkpt>
      <trkpt lat="42.873748" lon="-0.413131">
        <time>1970-01-01T00:00:00+00:00</time>
        <ele>1714.0</ele>
      </trkpt>
      <trkpt lat="42.873737" lon="-0.412927">
        <time>1970-01-01T00:00:00+00:00</time>
        <ele>1710.0</ele>
      </trkpt>
      <trkpt lat="42.873846" lon="-0.412909">
        <time>1970-01-01T00:00:00+00:00</time>
        <ele>1704.0</ele>
      </trkpt>
      <trkpt lat="42.873939" lon="-0.413071">
        <time>1970-01-01T00:00:00+00:00</time>
        <ele>1702.0</ele>
      </trkpt>
      <trkpt lat="42.874025" lon="-0.41299">
        <time>1970-01-01T00:00:00+00:00</time>
        <ele>1695.0</ele>
      </trkpt>
      <trkpt lat="42.874164" lon="-0.413107">
        <time>1970-01-01T00:00:00+00:00</time>
        <ele>1690.0</ele>
      </trkpt>
      <trkpt lat="42.87419" lon="-0.412963">
        <time>1970-01-01T00:00:00+00:00</time>
        <ele>1686.0</ele>
      </trkpt>
      <trkpt lat="42.87415" lon="-0.412286">
        <time>1970-01-01T00:00:00+00:00</time>
        <ele>1669.0</ele>
      </trkpt>
      <trkpt lat="42.874243" lon="-0.412286">
        <time>1970-01-01T00:00:00+00:00</time>
        <ele>1665.0</ele>
      </trkpt>
      <trkpt lat="42.874375" lon="-0.412367">
        <time>1970-01-01T00:00:00+00:00</time>
        <ele>1660.0</ele>
      </trkpt>
      <trkpt lat="42.874527" lon="-0.412611">
        <time>1970-01-01T00:00:00+00:00</time>
        <ele>1658.0</ele>
      </trkpt>
      <trkpt lat="42.874627" lon="-0.41299">
        <time>1970-01-01T00:00:00+00:00</time>
        <ele>1659.0</ele>
      </trkpt>
      <trkpt lat="42.874733" lon="-0.413243">
        <time>1970-01-01T00:00:00+00:00</time>
        <ele>1657.0</ele>
      </trkpt>
      <trkpt lat="42.874958" lon="-0.41345">
        <time>1970-01-01T00:00:00+00:00</time>
        <ele>1644.0</ele>
      </trkpt>
      <trkpt lat="42.875083" lon="-0.413694">
        <time>1970-01-01T00:00:00+00:00</time>
        <ele>1641.0</ele>
      </trkpt>
      <trkpt lat="42.875222" lon="-0.413812">
        <time>1970-01-01T00:00:00+00:00</time>
        <ele>1638.0</ele>
      </trkpt>
      <trkpt lat="42.87546" lon="-0.413703">
        <time>1970-01-01T00:00:00+00:00</time>
        <ele>1632.0</ele>
      </trkpt>
      <trkpt lat="42.875785" lon="-0.413198">
        <time>1970-01-01T00:00:00+00:00</time>
        <ele>1621.0</ele>
      </trkpt>
      <trkpt lat="42.87601" lon="-0.412963">
        <time>1970-01-01T00:00:00+00:00</time>
        <ele>1621.0</ele>
      </trkpt>
      <trkpt lat="42.876184" lon="-0.412856">
        <time>1970-01-01T00:00:00+00:00</time>
        <ele>1622.0</ele>
      </trkpt>
      <trkpt lat="42.876492" lon="-0.412401">
        <time>1970-01-01T00:00:00+00:00</time>
        <ele>1607.0</ele>
      </trkpt>
      <trkpt lat="42.877145" lon="-0.411964">
        <time>1970-01-01T00:00:00+00:00</time>
        <ele>1589.0</ele>
      </trkpt>
      <trkpt lat="42.877866" lon="-0.411477">
        <time>1970-01-01T00:00:00+00:00</time>
        <ele>1575.0</ele>
      </trkpt>
      <trkpt lat="42.877828" lon="-0.411316">
        <time>1970-01-01T00:00:00+00:00</time>
        <ele>1564.0</ele>
      </trkpt>
      <trkpt lat="42.877939" lon="-0.411121">
        <time>1970-01-01T00:00:00+00:00</time>
        <ele>1556.0</ele>
      </trkpt>
      <trkpt lat="42.877812" lon="-0.410988">
        <time>1970-01-01T00:00:00+00:00</time>
        <ele>1546.0</ele>
      </trkpt>
      <trkpt lat="42.877926" lon="-0.410814">
        <time>1970-01-01T00:00:00+00:00</time>
        <ele>1540.0</ele>
      </trkpt>
      <trkpt lat="42.877794" lon="-0.41063">
        <time>1970-01-01T00:00:00+00:00</time>
        <ele>1528.0</ele>
      </trkpt>
      <trkpt lat="42.87799" lon="-0.410492">
        <time>1970-01-01T00:00:00+00:00</time>
        <ele>1525.0</ele>
      </trkpt>
      <trkpt lat="42.878181" lon="-0.410451">
        <time>1970-01-01T00:00:00+00:00</time>
        <ele>1528.0</ele>
      </trkpt>
      <trkpt lat="42.879033" lon="-0.409627">
        <time>1970-01-01T00:00:00+00:00</time>
        <ele>1511.0</ele>
      </trkpt>
      <trkpt lat="42.879735" lon="-0.408684">
        <time>1970-01-01T00:00:00+00:00</time>
        <ele>1487.0</ele>
      </trkpt>
      <trkpt lat="42.879854" lon="-0.408444">
        <time>1970-01-01T00:00:00+00:00</time>
        <ele>1479.0</ele>
      </trkpt>
      <trkpt lat="42.881292" lon="-0.406342">
        <time>1970-01-01T00:00:00+00:00</time>
        <ele>1444.0</ele>
      </trkpt>
      <trkpt lat="42.881224" lon="-0.406202">
        <time>1970-01-01T00:00:00+00:00</time>
        <ele>1434.0</ele>
      </trkpt>
      <trkpt lat="42.880018" lon="-0.40647">
        <time>1970-01-01T00:00:00+00:00</time>
        <ele>1395.0</ele>
      </trkpt>
      <trkpt lat="42.879999" lon="-0.406261">
        <time>1970-01-01T00:00:00+00:00</time>
        <ele>1384.0</ele>
      </trkpt>
      <trkpt lat="42.880139" lon="-0.405351">
        <time>1970-01-01T00:00:00+00:00</time>
        <ele>1341.0</ele>
      </trkpt>
      <trkpt lat="42.880449" lon="-0.404575">
        <time>1970-01-01T00:00:00+00:00</time>
        <ele>1312.0</ele>
      </trkpt>
      <trkpt lat="42.880708" lon="-0.40422">
        <time>1970-01-01T00:00:00+00:00</time>
        <ele>1305.0</ele>
      </trkpt>
      <trkpt lat="42.881347" lon="-0.402858">
        <time>1970-01-01T00:00:00+00:00</time>
        <ele>1283.0</ele>
      </trkpt>
      <trkpt lat="42.880922" lon="-0.402841">
        <time>1970-01-01T00:00:00+00:00</time>
        <ele>1262.0</ele>
      </trkpt>
      <trkpt lat="42.880588" lon="-0.403189">
        <time>1970-01-01T00:00:00+00:00</time>
        <ele>1264.0</ele>
      </trkpt>
      <trkpt lat="42.880548" lon="-0.40288">
        <time>1970-01-01T00:00:00+00:00</time>
        <ele>1253.0</ele>
      </trkpt>
      <trkpt lat="42.880651" lon="-0.402707">
        <time>1970-01-01T00:00:00+00:00</time>
        <ele>1250.0</ele>
      </trkpt>
    </trkseg>
  </trk>
</gpx>
